Home   Weather   Ballia   Past weeks

Flag for India Past Weather in Ballia, Uttar Pradesh, India — Yesterday and Last 2 Weeks

Now
106 °F

Clear.


Feels Like: 103 °F
Forecast: 79 / 106 °F
Wind: 6 mph from West

Location: Patna Airport

Current Time: Apr 28, 2017 at 2:18:31 pm

Latest Report: Apr 28, 2017 at 1:30 pm


Visibility: 4 mi

Pressure: 29.65 "Hg

Humidity: 17%

Dew Point: 52 °F

Location of BalliaLocation

Past Weather in Ballia — Graph

°F

Ballia Temperature Yesterday

Maximum temperature yesterday: 106 °F (at 1:00 pm)
Minimum temperature yesterday: 77 °F (at 5:30 am)
Average temperature yesterday: 94 °F

High & Low Weather Summary for the Past Weeks

 TemperatureHumidityPressure
High106 °F (Apr 27, 1:00 pm)94% (Apr 22, 5:30 am)29.77 "Hg (Apr 22, 5:30 am)
Low72 °F (Apr 16, 5:30 am)13% (Apr 27, 1:00 pm)29.50 "Hg (Apr 19, 3:30 pm)
Average89 °F52%29.64 "Hg
* Reported Apr 13 12:30 pm — Apr 28 12:30 pm, Ballia, Weather by CustomWeather, © 2017

Note: Actual official high and low records may vary slightly from our data, if they occured in-between our weather recording intervals... More about our weather records

Advertising

Ballia Weather History for the Previous 24 Hours

Scroll right to see more
 ConditionsComfort  
Time TempWeatherWind HumidityBarometerVisibility
12:30 pm
Fri, Apr 28
104 °FClear.9 mph15%29.68 "Hg4 mi
12:00 pm104 °FClear.9 mph16%29.68 "Hg4 mi
11:30 am102 °FClear.12 mph18%29.71 "Hg4 mi
11:00 am100 °FClear.9 mph21%29.71 "Hg3 mi
10:30 am99 °FClear.6 mph24%29.71 "Hg2 mi
10:00 am97 °FClear.3 mph27%29.71 "Hg2 mi
9:30 am93 °FClear.3 mph32%29.74 "Hg2 mi
9:00 am91 °FClear.3 mph30%29.71 "Hg2 mi
8:30 am90 °FHaze.5 mph33%29.71 "Hg2 mi
8:00 am82 °FHaze.5 mph42%29.71 "Hg2 mi
7:30 am81 °FHaze.No wind48%29.71 "Hg2 mi
6:30 am77 °FScattered clouds.No wind54%29.68 "Hg2 mi
5:30 am75 °FHaze.No wind57%29.68 "Hg2 mi
10:00 pm
Thu, Apr 27
86 °FHaze.No wind38%29.68 "Hg2 mi
9:30 pm86 °FHaze.No wind38%29.68 "Hg2 mi
9:00 pm88 °FHaze.No wind35%29.68 "Hg2 mi
8:30 pm88 °FHaze.No wind35%29.65 "Hg2 mi
8:00 pm88 °FHaze.No wind35%29.65 "Hg2 mi
7:30 pm88 °FHaze.No wind31%29.65 "Hg2 mi
7:00 pm90 °FHaze.No wind29%29.62 "Hg2 mi
6:30 pm93 °FHaze.No wind26%29.62 "Hg3 mi
5:30 pm99 °FClear.3 mph21%29.59 "Hg4 mi
5:00 pm102 °FClear.7 mph17%29.59 "Hg4 mi
4:00 pm104 °FPassing clouds.12 mph16%29.62 "Hg4 mi
3:30 pm104 °FScattered clouds.7 mph16%29.62 "Hg4 mi
3:00 pm106 °FScattered clouds.9 mph14%29.62 "Hg4 mi
2:30 pm106 °FScattered clouds.7 mph14%29.65 "Hg4 mi
2:00 pm106 °FClear.7 mph13%29.65 "Hg4 mi
Weather by CustomWeather, © 2017

See weather overviewHow to use our weather pages